K0HYD Weather Reports


Display with metric or nautical units.
time (UTC)temp
F
wind
direction
speed
MPH
gust
MPH
rain 1hr
in
rain 24hr
in
rain mn
in
humidity
%
barometer
mb
20260508203121 77 81 0.0 1.0 0.00 0.00 0.00 40 1007.0
20260508201620 79 293 0.0 1.0 0.00 0.00 0.00 43 1006.9
20260508194618 78 91 0.0 1.0 0.00 0.00 0.00 45 1007.3
20260508193117 74 221 0.0 0.0 0.00 0.00 0.00 50 1007.7
20260508191616 75 250 0.0 0.0 0.00 0.00 0.00 47 1007.8
20260508190115 75 262 0.0 0.0 0.00 0.00 0.00 46 1007.6
20260508184614 74 134 0.0 0.0 0.00 0.00 0.00 51 1007.5
20260508183113 73 266 0.0 1.0 0.00 0.00 0.00 53 1007.8
20260508181612 71 252 0.0 0.0 0.00 0.00 0.00 54 1008.5
20260508180111 69 256 0.0 0.0 0.00 0.00 0.00 59 1008.3
20260508174610 70 257 0.0 0.0 0.00 0.00 0.00 56 1007.7
20260508173109 70 283 0.0 0.0 0.00 0.00 0.00 54 1008.5
20260508171608 71 263 0.0 1.0 0.00 0.00 0.00 55 1008.6
20260508170107 71 290 0.0 5.0 0.00 0.00 0.00 54 1009.0
20260508164606 72 250 0.0 0.0 0.00 0.00 0.00 53 1008.7
20260508161605 70 222 0.0 1.0 0.00 0.00 0.00 57 1008.4
20260508160104 68 226 0.0 1.0 0.00 0.00 0.00 58 1008.5
20260508154603 68 232 0.0 2.0 0.00 0.00 0.00 59 1009.2
20260508153102 68 191 0.0 0.0 0.00 0.00 0.00 61 1008.9
20260508151601 66 263 0.0 1.0 0.00 0.00 0.00 64 1009.1
20260508150100 64 187 0.0 1.0 0.00 0.00 0.00 66 1009.3
20260508144559 63 212 0.0 2.0 0.00 0.00 0.00 68 1009.1
20260508143058 62 222 0.0 1.0 0.00 0.00 0.00 68 1009.6
20260508141557 62 269 0.0 0.0 0.00 0.00 0.00 69 1010.0
20260508134555 61 263 0.0 1.0 0.00 0.00 0.00 70 1010.2
20260508131553 59 256 0.0 0.0 0.00 0.00 0.00 72 1009.9
20260508121549 56 219 0.0 0.0 0.00 0.00 0.00 74 1009.3
20260508120048 56 233 0.0 1.0 0.00 0.00 0.00 73 1009.3
20260508114547 55 229 0.0 0.0 0.00 0.00 0.00 72 1009.3
20260508113046 56 222 0.0 0.0 0.00 0.00 0.00 71 1009.5
20260508110044 55 253 0.0 0.0 0.00 0.00 0.00 69 1009.7
20260508104543 55 222 0.0 1.0 0.00 0.00 0.00 68 1009.4
20260508103043 55 273 0.0 0.0 0.00 0.00 0.00 68 1009.6
20260508101542 55 255 0.0 0.0 0.00 0.00 0.00 68 1009.6
20260508100041 54 222 0.0 0.0 0.00 0.00 0.00 67 1009.5
20260508090037 55 229 0.0 0.0 0.00 0.00 0.00 62 1009.5
20260508084536 56 231 0.0 0.0 0.00 0.00 0.00 61 1009.5
20260508083035 56 229 0.0 1.0 0.00 0.00 0.00 60 1009.5
20260508081534 56 224 0.0 0.0 0.00 0.00 0.00 60 1009.6
20260508080033 56 212 0.0 0.0 0.00 0.00 0.00 59 1009.7
20260508074532 57 232 0.0 0.0 0.00 0.00 0.00 57 1009.9
20260508073031 57 239 0.0 0.0 0.00 0.00 0.00 56 1010.0
20260508071530 58 205 0.0 0.0 0.00 0.00 0.00 56 1010.3
20260508064528 59 224 0.0 1.0 0.00 0.00 0.00 55 1010.3
20260508060025 59 236 0.0 0.0 0.00 0.00 0.00 55 1010.3
20260508054524 59 219 0.0 0.0 0.00 0.00 0.00 54 1010.5
20260508053023 59 230 0.0 3.0 0.00 0.00 0.00 53 1010.5
20260508051523 60 205 0.0 2.0 0.00 0.00 0.00 52 1010.7
20260508050022 60 200 0.0 2.0 0.00 0.00 0.00 51 1010.8
20260508044521 61 146 0.0 3.0 0.00 0.00 0.00 50 1010.8
20260508043019 61 134 0.0 1.0 0.00 0.00 0.00 49 1010.9
20260508041519 62 103 0.0 1.0 0.00 0.00 0.00 47 1011.0
20260508040017 62 176 0.0 3.0 0.00 0.00 0.00 46 1011.0
20260508034517 63 158 0.0 5.0 0.00 0.00 0.00 44 1011.0
20260508033016 64 153 0.0 5.0 0.00 0.00 0.00 43 1011.1
20260508031515 64 128 1.0 5.0 0.00 0.00 0.00 42 1011.0
20260508030014 64 207 0.0 4.0 0.00 0.00 0.00 41 1011.0
20260508024513 64 142 2.0 6.0 0.00 0.00 0.00 41 1010.8
20260508023012 65 172 0.0 2.0 0.00 0.00 0.00 42 1010.7
20260508021511 66 185 0.0 0.0 0.00 0.00 0.00 41 1010.6
20260508014509 68 164 0.0 0.0 0.00 0.00 0.00 38 1010.3
20260508013008 69 156 0.0 2.0 0.00 0.00 0.00 36 1010.0
20260508011507 72 155 255.0 255.0 0.00 0.00 0.00 33 1009.9
20260508010006 72 155 255.0 255.0 0.00 0.00 0.00 33 1009.8
20260508003005 74 194 0.0 0.0 0.00 0.00 0.00 29 1009.8
20260507234501 78 203 0.0 1.0 0.00 0.00 0.00 25 1010.1
20260507233000 78 207 0.0 1.0 0.00 0.00 0.00 26 1010.1
20260507231500 78 221 0.0 0.0 0.00 0.00 0.00 25 1010.3
20260507225958 78 271 0.0 0.0 0.00 0.00 0.00 25 1010.5
20260507224457 78 264 0.0 1.0 0.00 0.00 0.00 26 1010.7
20260507222956 78 155 0.0 1.0 0.00 0.00 0.00 27 1010.9
20260507221455 78 218 0.0 1.0 0.00 0.00 0.00 26 1010.9
20260507215955 78 218 0.0 0.0 0.00 0.00 0.00 26 1011.2
20260507214454 77 229 0.0 1.0 0.00 0.00 0.00 28 1011.4
20260507212953 77 221 0.0 1.0 0.00 0.00 0.00 27 1011.6
20260507211452 77 239 0.0 1.0 0.00 0.00 0.00 28 1011.9
20260507205951 76 235 0.0 8.0 0.00 0.00 0.00 30 1012.1
20260507204450 76 243 0.0 1.0 0.00 0.00 0.00 29 1012.4